軌道要素
Epoch 2018 Dec. 28.0 TT = JDT 2458480.5
T 2019 Jan. 10.15942 TT Rudenko
q 1.6494757 (2000.0) P Q
n 0.10426230 Peri. 220.37827 -0.43066576 -0.88225450
a 4.4707926 Node 255.90812 +0.87031704 -0.35021201
e 0.6310552 Incl. 11.30558 +0.23890426 -0.31460858
P 9.45
From 369 observations 1999 Nov. 14-2019 Apr. 19, mean residual 0".8.
|